Theta_e
294 293 291 290 290 289 289 289 289 289 289 289 289 289 289 289 289 289 289 289 289 289 289 289 289 289 289 289 289 289 289 289 289 289 289 289 290 290 290 290 290 290 290 290 290 290 290 290 290 290 290 290 290 290 290 290 290 290 290 290 290 290 289 289 289 289 290 290 290 290 290 289 290 290 290 290 290 290 290 290 290 290 290 290 290 291
292 291 290 289 289 289 289 289 289 289 289 289 289 289 289 289 289 289 289 289 289 289 289 289 289 289 289 289 289 289 289 289 289 289 290 290 290 290 290 290 290 290 290 290 289 290 289 289 289 289 289 289 289 289 289 289 289 289 289 289 289 289 289 289 289 289 289 289 289 289 289 289 289 289 289 289 289 289 289 289 289 290 290 290 290 291
290 289 289 289 289 289 289 289 289 289 289 289 289 289 289 289 289 289 289 289 289 289 289 289 289 289 289 289 289 289 289 290 290 290 290 290 290 290 290 289 289 289 289 289 289 289 289 289 289 289 289 289 289 289 289 289 289 289 289 289 289 289 289 289 289 289 289 289 289 289 289 289 289 289 289 289 289 289 289 289 289 289 290 290 290 291
289 289 289 289 289 289 289 289 289 289 289 289 289 288 288 288 288 289 289 289 289 289 289 289 289 289 289 289 289 290 290 290 289 289 289 289 289 289 289 289 289 289 289 289 289 289 289 289 289 289 289 289 289 289 289 289 289 289 289 289 289 289 289 289 289 289 289 289 289 289 289 289 289 289 289 289 289 289 289 289 289 289 290 290 290 290
289 289 289 288 288 288 288 289 289 289 289 288 288 288 288 288 289 289 289 289 289 289 289 289 289 289 289 289 289 289 289 289 289 289 289 289 289 289 289 289 289 289 289 289 289 289 289 289 289 289 289 289 289 289 289 289 289 289 289 288 288 288 288 288 288 288 288 288 288 289 289 289 289 289 289 289 289 289 289 289 289 289 290 290 290 290
289 289 289 288 288 288 288 288 288 288 288 288 288 288 288 288 289 289 289 289 289 289 289 289 289 289 289 289 289 289 289 289 289 289 289 289 289 289 289 289 289 289 288 288 288 288 289 289 288 288 288 288 288 288 288 288 288 288 288 288 288 288 288 288 288 288 288 288 288 288 288 288 288 288 288 288 288 288 289 289 289 289 289 290 290 290
289 288 288 288 288 288 288 288 288 288 288 288 288 288 288 288 289 289 289 289 289 289 289 289 289 289 289 289 289 289 289 289 288 288 288 288 288 288 288 288 288 288 288 288 288 288 288 288 288 288 288 288 288 288 288 288 288 288 288 288 288 288 288 288 288 288 288 288 288 288 288 288 288 288 288 288 288 288 289 289 289 289 289 290 290 290
289 288 288 288 288 288 288 288 288 288 288 288 288 288 288 288 289 289 289 289 289 289 289 289 289 288 288 288 288 288 288 289 288 288 288 288 288 288 288 288 288 288 288 288 288 288 288 288 288 288 288 288 288 288 288 288 288 288 288 288 288 288 288 288 288 288 288 287 287 287 287 287 288 288 288 288 288 289 289 289 289 289 289 289 289 289
288 288 288 288 288 288 288 288 288 288 288 288 288 288 288 288 288 289 289 289 288 288 288 288 288 288 288 288 288 288 288 288 288 288 288 288 288 288 288 288 288 288 288 288 288 288 288 288 288 287 287 287 287 287 288 288 288 288 288 288 288 287 287 287 287 287 287 287 287 287 287 287 288 288 288 288 289 289 289 289 289 289 289 289 289 289
288 288 288 288 288 288 288 288 288 288 288 288 288 288 288 288 288 288 288 288 288 288 288 288 288 288 288 288 288 288 288 288 288 288 288 288 288 288 288 288 288 288 287 287 288 288 288 287 287 287 287 287 287 287 287 287 287 287 287 287 287 287 287 287 287 287 287 287 287 287 287 288 288 288 288 288 288 289 289 289 289 289 289 289 289 289
288 288 288 288 288 288 288 288 288 288 288 288 288 288 288 288 288 288 288 288 288 288 288 288 288 288 288 288 288 288 288 288 288 287 288 288 288 288 288 287 287 287 287 287 287 287 287 287 287 287 287 287 287 287 287 287 287 287 287 287 287 287 287 287 287 287 287 287 287 287 287 288 288 288 288 288 288 288 288 288 288 288 288 288 288 288
288 288 288 288 288 288 288 288 288 288 288 288 288 288 288 288 288 288 288 288 288 288 288 288 288 288 288 288 288 288 288 288 288 287 287 288 288 288 288 288 287 287 287 287 287 287 287 287 287 287 287 287 287 287 287 287 287 287 287 287 287 287 287 287 287 287 287 287 287 287 287 287 287 287 288 288 288 288 288 288 288 288 288 288 288 288
288 288 288 288 288 288 288 288 288 288 288 288 288 288 288 288 288 288 288 288 288 288 287 287 287 288 288 288 288 288 288 288 288 287 287 287 288 288 288 288 288 287 287 287 287 287 287 287 287 287 287 287 287 287 287 287 287 287 287 287 287 287 287 287 287 287 287 287 287 287 287 287 287 287 287 287 287 287 287 287 287 287 287 287 287 288
288 288 288 288 288 288 288 288 288 288 288 288 288 288 288 288 288 287 287 287 287 287 287 287 287 287 287 288 288 288 288 288 288 288 287 287 288 288 288 288 288 287 287 287 287 287 287 287 287 287 287 287 287 287 287 287 287 287 287 287 287 287 287 287 287 287 287 287 287 287 287 287 287 287 287 287 287 287 287 287 287 287 287 287 287 287
288 288 288 288 288 287 288 288 288 288 288 288 288 288 287 287 287 287 287 287 287 287 287 287 287 287 287 287 287 288 288 288 288 288 288 287 287 288 288 288 288 287 287 287 287 287 287 287 287 287 287 287 287 287 287 287 287 287 287 287 287 287 287 287 287 287 287 287 287 287 287 287 286 286 286 286 287 287 287 287 287 287 287 287 287 287
288 288 288 287 287 287 287 287 287 287 287 287 287 287 287 287 287 287 287 287 287 287 287 287 288 287 287 287 287 287 288 288 288 288 288 287 287 287 288 288 288 288 287 287 287 287 287 287 287 287 287 287 287 287 287 287 287 287 287 287 287 287 287 287 287 287 287 287 287 287 286 286 286 286 286 286 286 286 286 286 287 287 287 287 287 287
288 288 287 287 287 287 287 287 287 287 287 287 287 287 287 287 287 287 287 287 287 287 287 287 287 288 288 287 287 287 287 288 288 288 288 288 287 287 287 288 288 288 287 287 287 287 287 287 287 287 287 287 287 287 287 287 287 287 287 287 287 287 287 287 287 287 287 287 286 286 286 286 286 286 286 286 286 286 286 286 286 287 287 287 287 287
288 287 287 287 287 287 287 287 287 287 287 287 287 287 287 287 287 287 287 287 287 287 287 287 287 287 287 287 287 287 287 287 288 288 288 288 287 287 287 287 288 288 287 287 287 287 287 287 287 287 287 287 287 287 287 287 287 287 287 287 287 287 287 287 287 287 286 286 286 286 286 286 286 286 286 286 286 286 286 286 286 286 286 287 287 287
288 287 287 287 287 287 287 287 287 287 287 287 287 287 287 287 287 287 287 287 287 287 287 287 287 287 287 287 287 287 287 287 287 288 288 288 288 287 287 288 288 288 288 288 287 287 287 287 287 287 287 287 287 287 287 287 287 287 287 287 287 287 286 286 286 286 286 286 286 286 286 286 286 286 286 286 286 286 286 286 286 286 286 286 286 287
287 287 287 287 287 287 287 287 287 287 287 287 287 287 287 287 287 287 287 287 287 287 287 287 287 287 286 286 286 286 287 287 287 287 288 288 288 287 288 288 288 288 288 288 287 287 287 287 287 287 287 287 287 287 287 287 287 287 287 286 286 286 286 286 286 286 286 286 286 285 285 285 285 285 286 286 286 286 286 286 286 286 286 286 286 286
287 287 287 287 287 287 287 287 287 287 287 287 287 287 287 287 287 287 287 287 287 287 287 287 287 286 286 286 286 286 286 287 287 287 288 288 288 288 288 288 288 288 288 288 288 287 287 287 287 287 287 287 287 287 287 287 287 286 286 286 286 286 286 286 285 285 285 285 285 285 285 285 285 285 285 286 286 286 286 286 286 286 286 286 286 286
287 287 287 287 287 287 287 287 287 287 287 287 287 287 287 287 287 287 287 287 287 287 287 286 286 286 286 286 286 286 286 286 287 287 288 288 288 288 288 288 288 288 288 288 288 288 287 287 287 287 287 287 287 287 287 286 286 286 286 286 286 285 285 285 285 285 285 285 285 285 285 285 285 285 285 286 286 286 286 286 286 286 286 286 286 286
287 287 287 287 287 287 287 287 287 287 287 287 287 287 287 287 287 287 287 287 287 287 287 286 286 286 286 286 286 286 286 286 287 287 287 288 288 288 288 288 288 288 288 288 288 288 288 287 287 287 287 287 287 286 286 286 286 286 286 286 285 285 285 285 285 285 285 285 285 285 285 285 285 285 285 286 286 286 286 286 286 286 286 286 286 286
287 287 287 287 287 287 287 287 287 287 287 287 287 287 287 287 287 287 287 287 287 287 286 286 286 286 286 286 286 286 286 286 287 287 287 287 288 288 288 288 288 288 288 288 288 288 288 288 287 287 287 287 287 286 286 286 286 286 286 285 285 285 285 285 285 285 285 285 285 285 285 285 285 285 285 286 286 286 286 286 286 286 286 286 286 286
287 287 287 287 287 287 287 287 287 287 287 287 287 287 287 287 287 287 287 287 286 286 286 286 286 286 286 286 286 286 286 286 287 287 287 287 288 288 287 288 288 288 288 288 288 288 288 288 288 287 287 287 286 286 286 286 286 286 285 285 285 285 285 285 285 285 285 285 285 285 285 285 285 285 285 286 286 286 286 286 286 286 286 286 286 286
287 287 287 287 287 287 287 287 287 287 287 287 287 287 287 287 287 287 287 286 286 286 286 286 286 286 286 287 287 286 286 286 286 287 287 287 287 287 287 287 287 288 288 288 288 288 288 288 288 287 287 287 286 286 286 286 286 286 285 285 285 285 285 285 285 285 285 285 285 285 285 285 285 285 285 286 286 286 286 286 286 286 286 286 286 286
287 287 287 287 287 287 287 287 287 286 286 286 286 286 286 286 286 286 286 286 286 286 286 286 286 287 287 287 287 286 286 286 286 286 286 286 286 287 287 287 287 287 288 288 288 288 288 288 287 287 287 287 286 286 286 286 286 286 285 285 285 285 285 285 285 285 285 285 285 285 285 285 285 285 285 286 286 286 286 286 286 286 286 286 286 286
287 287 287 286 286 286 286 286 286 286 286 286 286 286 286 286 286 286 286 286 286 286 286 286 286 286 287 287 286 286 286 285 286 286 286 286 286 286 286 286 286 287 287 288 288 288 287 287 287 287 287 286 286 286 286 286 286 286 285 285 285 285 285 285 285 285 285 285 285 285 285 285 285 285 285 286 286 286 285 285 285 285 285 285 285 286
287 286 286 286 286 286 286 286 286 286 286 286 286 286 286 286 286 286 286 286 286 286 286 286 286 286 286 286 286 286 286 285 285 285 286 285 286 286 286 286 286 286 286 287 287 288 288 287 287 287 286 286 286 286 286 286 286 285 285 285 285 285 285 285 285 285 285 285 285 285 285 285 285 285 285 285 285 285 285 285 285 285 285 285 285 285
286 286 286 286 286 286 286 286 286 286 286 286 286 286 286 286 286 286 286 286 286 286 286 286 286 286 286 286 286 286 286 285 285 285 285 285 285 286 286 286 286 285 285 285 286 287 287 287 287 286 286 286 286 286 286 286 286 285 285 285 285 285 285 285 285 285 285 285 285 285 285 285 285 285 285 285 285 285 285 285 285 285 285 285 285 285
286 286 286 286 286 286 286 286 286 286 286 286 286 286 286 286 286 286 286 286 286 286 286 286 286 286 286 286 286 286 286 285 284 284 285 285 285 285 285 285 285 285 284 283 283 284 285 287 287 286 286 286 286 286 286 285 285 285 285 285 285 285 285 285 285 285 285 285 285 285 285 285 285 285 285 285 285 285 285 285 285 284 284 284 284 285
286 286 286 286 286 286 286 286 286 286 286 286 286 286 286 286 286 286 286 286 286 286 286 286 286 286 286 286 285 286 286 285 284 284 285 285 285 285 285 285 285 285 284 283 282 281 282 284 286 286 286 286 286 286 285 285 285 285 285 285 285 285 285 285 285 285 285 285 285 285 285 285 285 285 285 285 285 285 285 285 285 284 284 284 284 284
286 286 286 286 286 286 286 286 286 286 286 286 286 286 286 286 286 286 286 286 286 286 286 285 286 285 285 285 286 286 286 285 284 284 284 284 285 285 285 284 284 284 284 283 282 281 281 282 283 285 285 285 285 285 285 285 285 285 284 284 285 285 285 285 285 285 285 285 285 285 285 285 285 285 285 285 285 285 285 285 284 284 284 284 284 284
286 286 286 286 286 286 286 286 286 286 286 285 285 285 285 285 285 285 285 285 285 285 285 285 285 285 285 285 285 286 286 285 284 284 284 284 284 284 284 284 284 284 283 283 282 282 282 281 282 282 283 285 285 285 285 284 284 284 284 284 284 284 284 284 284 284 284 284 284 285 285 285 285 285 285 285 285 285 285 285 284 284 284 284 284 284
286 286 286 286 286 286 286 286 286 286 286 285 285 285 285 285 285 285 285 285 285 285 285 285 285 285 285 285 285 286 286 285 284 284 284 284 284 284 284 284 284 283 283 282 282 282 281 282 282 282 282 283 284 284 284 284 284 284 284 284 284 284 284 284 284 284 284 284 284 284 284 284 284 284 284 284 285 285 285 284 284 284 284 284 284 284
286 286 286 286 286 286 286 286 286 285 285 285 285 285 285 285 285 285 285 285 285 285 285 285 285 285 285 285 285 285 285 285 284 284 283 283 283 283 283 283 283 283 282 282 282 282 281 282 282 282 282 282 283 284 284 284 284 284 284 284 284 284 284 284 284 284 284 284 284 284 284 284 283 284 284 284 284 284 284 284 284 284 284 284 284 284
286 286 286 286 286 286 286 286 285 285 285 285 285 285 285 285 285 285 285 285 285 285 285 285 285 285 285 285 285 285 285 285 284 284 283 283 283 283 283 283 283 283 282 282 282 281 281 281 281 282 282 282 282 282 283 284 284 284 284 284 284 284 284 284 284 284 284 283 283 283 283 283 283 283 283 284 284 284 284 285 284 284 284 284 284 284
286 286 286 286 286 286 286 286 286 285 285 285 285 285 285 285 285 285 285 285 285 285 285 285 285 285 285 285 285 285 284 284 284 284 283 283 283 283 283 283 283 282 282 282 282 281 281 281 281 281 281 282 282 282 282 283 283 283 283 283 284 284 284 284 283 283 283 283 283 283 283 283 283 283 283 283 284 284 284 284 284 284 284 284 285 285
286 286 286 286 286 286 286 286 286 285 285 285 285 285 285 285 285 285 285 285 285 285 285 285 285 285 285 285 285 284 284 284 284 284 283 283 283 283 282 282 283 282 282 282 282 281 281 281 281 281 281 281 282 282 283 283 283 283 283 283 283 283 283 283 283 283 283 283 283 283 283 283 283 283 283 283 283 284 284 284 284 284 284 284 284 285
286 286 286 286 286 286 286 286 286 285 285 285 285 285 285 285 285 285 285 285 285 285 285 285 285 285 285 285 285 284 284 284 284 284 283 283 283 283 282 282 282 282 282 282 282 282 282 281 281 281 281 281 281 282 282 283 283 283 283 282 283 283 283 283 283 283 283 283 283 283 282 282 282 282 282 283 283 283 283 284 284 284 284 284 284 284
286 286 286 286 286 286 286 286 286 285 285 285 285 285 285 285 285 285 285 285 285 285 285 285 285 285 285 285 285 284 284 284 284 284 283 283 283 283 283 282 282 282 282 282 282 282 282 282 282 282 282 282 282 282 282 283 283 283 282 282 282 282 283 283 283 283 282 282 282 282 282 282 282 282 282 282 283 283 283 283 284 284 284 283 283 283
286 286 286 286 286 286 286 286 286 285 285 285 285 285 285 285 285 285 285 285 285 285 285 285 285 285 285 285 285 285 284 284 284 284 283 283 283 283 283 283 282 282 282 282 282 282 282 282 282 282 282 282 282 282 282 283 283 283 282 282 282 282 282 283 283 282 282 282 282 282 282 282 282 282 282 282 283 283 283 284 283 283 283 283 283 283
287 286 286 286 286 286 286 286 286 286 286 286 285 285 285 285 285 285 285 285 285 285 285 285 285 285 285 286 286 285 285 284 284 284 284 283 283 283 283 283 282 282 282 282 282 283 283 283 283 283 282 282 282 282 282 283 283 283 283 282 282 281 281 282 282 282 282 282 282 282 282 282 282 282 282 282 283 283 283 283 283 283 283 283 283 283
286 286 286 286 286 286 286 286 286 286 286 286 285 285 285 285 285 285 285 285 285 285 285 285 285 285 285 286 286 286 285 285 284 284 284 284 283 283 283 283 283 283 282 282 283 283 283 283 283 283 283 282 282 282 282 283 283 283 282 282 282 281 281 281 282 282 282 282 282 282 282 282 282 282 282 282 282 283 283 283 283 283 283 283 283 283
286 286 286 286 286 286 286 286 286 286 286 286 285 285 285 285 285 285 285 285 285 285 285 285 285 285 285 286 286 286 286 285 285 284 284 284 283 283 283 283 283 283 283 283 283 282 283 283 283 283 283 283 283 283 283 283 283 282 282 282 281 281 281 281 281 282 282 282 282 282 282 282 282 281 282 282 282 282 282 283 283 283 283 283 283 283
287 287 286 286 286 286 286 286 286 286 286 286 285 285 285 285 285 285 285 285 285 285 285 285 285 285 285 286 286 286 286 286 285 285 285 284 284 283 283 283 283 283 283 283 283 283 283 283 283 283 283 283 283 283 283 283 282 282 282 282 281 281 281 281 282 282 282 282 282 282 282 282 281 281 281 281 281 282 282 282 282 283 283 283 283 283
287 287 287 287 286 286 286 286 286 286 286 286 286 285 285 285 285 285 285 285 285 285 285 285 285 285 285 285 285 285 285 285 285 285 285 284 284 284 284 283 283 283 283 283 283 283 283 283 283 283 283 283 283 283 283 283 282 282 282 281 281 281 281 281 282 282 282 282 282 282 282 282 281 281 281 281 281 281 282 282 282 282 283 283 283 283
287 287 287 287 286 286 286 286 286 286 286 286 286 286 285 285 285 285 285 285 285 285 285 285 285 285 285 285 285 285 285 285 285 285 285 285 284 284 284 283 283 283 283 283 283 283 283 283 283 283 283 283 283 283 283 283 282 282 281 281 281 281 281 281 282 282 282 282 282 282 281 281 281 281 281 281 281 281 282 282 282 282 283 283 283 283
287 287 287 286 286 286 286 286 286 286 286 286 286 286 285 285 285 285 285 285 285 285 285 285 285 285 285 285 285 285 285 285 285 285 285 284 284 284 284 284 283 283 283 283 283 283 283 283 283 283 283 283 282 282 282 282 282 282 281 281 281 281 281 281 282 282 282 282 282 282 281 281 281 281 281 281 281 282 282 282 282 282 282 283 283 283
286 286 286 286 286 286 286 286 286 286 286 286 286 286 285 285 285 285 285 285 285 285 285 285 285 285 285 285 285 285 285 285 285 285 285 284 284 284 284 283 283 283 283 283 283 283 283 283 283 283 283 283 282 282 281 281 281 281 281 281 281 281 281 281 281 282 282 282 282 281 281 281 281 281 281 281 282 282 282 282 282 282 282 283 283 283
286 286 286 286 286 286 286 286 286 286 286 286 285 285 285 285 285 285 285 285 285 285 285 284 284 285 285 285 285 285 285 284 284 285 284 284 284 283 283 283 283 283 283 283 283 283 282 282 282 282 283 283 282 282 281 281 281 281 281 282 282 281 281 281 281 282 282 281 281 281 281 281 281 281 281 282 282 282 282 282 282 282 282 282 282 283
Wind_Speed
7 7 6 6 6 7 7 7 7 7 6 7 8 8 8 7 7 6 6 6 5 5 5 5 5 6 6 6 6 6 6 6 7 7 7 8 9 10 10 11 12 13 14 15 15 16 16 17 18 19 19 20 20 20 20 21 21 21 21 21 21 21 22 22 22 23 23 23 24 24 24 24 24 25 25 25 25 26 26 26 26 26 26 25 25 25
7 7 6 6 7 7 7 7 7 6 5 5 5 6 5 4 4 4 3 3 3 3 3 3 3 4 4 4 4 5 5 5 6 6 7 8 9 10 11 12 13 14 14 15 16 16 17 17 18 18 19 19 19 20 20 20 20 20 20 21 21 21 21 22 22 22 23 23 23 24 24 24 24 24 25 25 26 26 26 26 26 26 26 26 26 26
7 6 6 6 7 7 7 6 6 6 5 4 4 3 3 2 2 1 1 1 1 1 1 2 2 2 3 3 4 4 5 5 6 7 8 9 10 11 12 13 13 14 15 15 16 16 17 17 18 18 18 19 19 19 19 20 20 20 20 20 21 21 21 22 22 22 22 23 23 23 23 24 24 25 25 26 26 26 26 26 26 26 26 26 26 26
7 6 6 6 6 7 6 6 5 5 5 4 2 1 1 1 0 0 1 1 1 0 0 1 1 2 3 3 4 4 5 6 7 8 9 10 11 12 13 13 14 14 15 15 16 16 17 17 17 18 18 18 19 19 19 19 19 19 20 20 20 21 21 21 21 22 22 22 23 23 23 24 24 25 26 26 26 26 26 26 26 26 27 27 27 27
6 5 5 5 6 6 6 5 4 4 3 2 1 1 1 1 1 1 1 1 1 1 1 1 2 3 4 4 5 6 7 8 9 10 10 11 12 12 13 14 14 14 15 15 15 16 16 17 17 17 18 18 18 19 19 19 19 19 19 20 20 20 21 21 21 21 22 22 23 23 24 24 25 25 26 26 26 26 27 27 27 27 28 28 29 29
5 5 5 5 5 5 4 4 3 2 2 2 2 2 2 1 1 1 2 2 1 1 2 3 3 4 5 6 7 7 8 9 9 10 11 11 12 12 13 13 13 14 14 15 15 15 16 16 17 17 17 18 18 18 19 19 19 19 19 20 20 20 20 21 21 21 22 22 23 23 24 24 25 26 26 26 27 27 27 27 28 29 29 30 30 30
5 5 5 5 5 5 4 4 3 3 3 3 3 2 2 2 2 1 2 2 2 2 3 4 4 5 6 7 7 8 8 9 9 10 11 11 11 12 12 13 13 13 14 14 15 15 15 16 16 16 17 17 18 18 18 19 19 19 19 19 20 20 20 20 21 21 22 22 23 23 24 24 25 25 26 26 27 28 28 29 29 30 30 30 30 30
5 5 5 5 4 4 4 5 4 4 4 4 3 3 2 1 1 1 1 2 2 3 4 4 5 5 6 7 8 9 9 9 10 10 10 11 11 11 11 12 12 13 13 13 14 14 15 15 15 16 16 17 17 18 18 18 18 19 19 19 19 19 19 20 20 21 21 22 22 23 24 24 25 25 26 27 28 28 29 29 30 30 30 30 30 30
5 5 5 4 4 4 4 5 5 5 5 4 4 3 2 2 1 2 2 2 3 4 4 5 5 6 6 7 8 9 10 11 11 11 11 11 11 11 11 11 12 12 13 13 13 14 14 14 15 15 15 16 17 17 17 18 18 18 18 18 18 18 18 19 19 20 21 21 22 23 24 24 25 26 26 27 28 29 29 30 30 30 30 30 30 29
5 5 5 5 4 4 3 3 4 4 4 4 3 3 2 2 2 2 2 3 4 5 5 6 6 7 7 7 7 8 9 10 11 12 12 12 11 11 11 11 11 12 12 13 13 13 14 14 14 14 15 15 16 16 17 17 17 17 17 17 17 17 18 18 19 20 21 21 22 23 24 24 25 26 27 27 28 29 29 29 30 30 30 30 30 30
5 5 5 5 4 4 3 2 2 2 2 1 1 1 1 0 1 2 3 4 6 7 8 8 9 9 8 8 8 8 8 8 10 11 12 12 12 11 11 11 11 12 12 13 13 13 13 13 14 14 14 15 15 16 16 16 16 16 16 16 16 17 17 18 19 20 21 21 22 23 23 24 25 26 26 27 28 28 29 29 30 30 30 30 30 30
6 5 4 4 3 3 2 2 1 1 1 1 0 0 1 2 2 4 5 6 7 8 9 10 11 11 11 10 10 9 8 8 9 10 11 12 11 11 11 11 11 11 12 12 13 13 13 13 13 14 14 15 15 15 16 16 16 16 16 16 16 17 18 18 19 20 21 22 22 23 23 24 24 25 26 26 27 28 28 29 29 30 30 30 30 30
5 5 4 3 3 2 2 1 1 1 0 1 2 2 3 4 5 6 7 8 8 9 10 11 12 12 12 12 12 11 10 10 9 10 11 12 13 12 12 11 11 12 12 12 13 13 14 14 14 14 14 15 15 16 16 16 16 16 16 16 17 17 18 19 19 20 21 22 22 23 23 24 24 25 25 26 27 27 28 28 29 29 29 30 30 30
5 5 4 3 2 2 1 0 0 1 1 2 3 4 5 6 7 7 8 8 9 9 10 10 11 12 13 13 13 13 13 12 11 10 11 13 14 14 13 13 13 13 13 13 14 14 15 15 14 14 15 15 16 16 17 16 16 16 16 17 17 18 18 19 20 20 21 21 22 22 23 23 23 24 25 25 26 26 27 27 28 28 29 29 29 30
5 4 3 3 2 1 1 1 1 2 3 4 5 6 7 7 8 8 8 9 9 9 9 9 9 10 13 14 15 15 14 14 13 12 12 13 15 15 15 14 14 14 14 14 15 15 16 16 15 15 16 16 17 17 17 17 17 17 17 17 17 18 18 19 19 20 21 21 21 22 22 22 23 23 24 25 25 26 26 27 27 28 28 28 29 29
4 4 3 2 2 1 1 1 2 3 4 5 6 7 7 7 8 9 9 10 10 11 11 10 9 9 11 13 15 16 16 16 15 14 13 14 15 16 16 16 15 15 15 15 16 16 17 17 16 16 16 16 17 17 17 17 17 17 17 17 17 17 18 19 19 20 20 20 21 21 21 22 22 23 23 24 24 25 25 26 26 27 27 28 28 29
3 3 2 2 2 2 2 2 3 4 5 6 6 7 8 8 9 9 10 10 11 12 12 13 13 13 12 13 15 17 18 18 17 16 15 15 16 17 17 17 17 17 16 16 17 17 18 17 17 16 16 17 17 17 17 17 17 17 17 17 17 17 18 18 19 19 19 20 20 20 21 21 21 22 23 23 24 24 25 25 26 26 27 28 28 29
2 2 2 2 2 2 2 3 3 4 5 6 6 7 8 9 9 10 10 11 11 12 12 13 14 15 15 16 17 18 19 19 19 18 17 16 17 17 18 18 18 18 17 17 18 18 18 18 17 17 17 17 17 17 17 17 17 17 17 17 17 17 17 18 18 18 19 19 19 19 20 20 21 21 22 23 23 24 24 25 26 26 27 27 28 29
2 2 2 2 3 3 3 4 4 5 5 6 6 7 7 8 9 10 10 11 12 12 13 13 14 14 15 16 17 18 19 20 20 20 19 18 17 18 19 19 19 18 18 18 18 18 18 18 17 17 17 17 17 17 17 17 17 17 17 17 17 17 17 18 18 18 18 18 18 19 19 20 20 21 21 22 23 23 24 24 25 26 26 27 27 28
2 2 2 3 4 4 4 5 5 6 6 6 7 7 7 8 9 9 10 11 12 12 13 13 14 14 15 16 17 18 19 20 21 21 20 19 18 19 20 20 20 19 18 18 18 18 18 18 17 17 17 17 18 18 18 18 18 18 18 18 18 17 17 17 17 17 17 18 18 18 19 19 20 20 21 21 22 23 23 24 24 25 26 26 27 27
2 2 3 3 4 5 5 6 6 6 7 7 7 8 8 8 8 9 10 11 12 12 13 13 14 15 15 16 17 18 19 20 21 21 21 20 19 19 20 20 20 19 19 19 19 19 19 18 17 17 18 18 19 19 19 19 19 19 19 18 18 18 17 17 17 17 17 17 18 18 18 19 19 20 20 21 22 22 23 23 24 24 25 25 26 27
3 3 3 4 4 5 6 6 7 7 7 8 8 8 8 8 9 10 11 12 12 13 13 14 14 15 16 16 17 17 18 19 20 21 22 21 19 19 19 20 20 20 20 20 19 19 19 19 18 18 18 19 20 20 21 21 21 20 20 19 19 18 18 17 17 17 17 17 17 18 18 19 19 20 20 21 21 22 22 23 23 24 24 25 26 26
3 3 4 4 5 6 6 7 7 8 8 8 8 8 9 9 10 11 11 12 13 14 14 15 15 16 16 16 16 17 17 18 19 20 21 21 20 20 20 20 21 21 21 21 21 21 20 19 19 19 19 20 21 22 22 22 22 21 21 20 19 19 18 18 17 17 17 17 17 17 18 18 19 19 20 20 21 21 21 22 22 23 24 25 25 26
3 4 4 5 5 6 6 7 7 8 8 9 9 9 10 10 11 11 12 13 14 15 16 16 17 17 17 16 16 15 16 17 18 19 20 21 20 20 20 21 21 22 22 22 22 22 21 20 20 20 20 21 22 23 23 23 23 22 21 21 20 19 19 18 18 17 17 17 17 17 18 18 18 19 19 20 20 20 21 21 22 23 23 24 25 26
4 4 5 5 5 6 7 7 8 8 9 9 10 10 11 11 12 13 13 14 15 16 17 17 17 17 17 16 15 15 15 16 18 18 19 20 20 20 20 21 22 23 23 22 22 22 22 21 21 21 22 23 23 24 24 24 23 23 22 21 21 20 20 19 18 18 17 17 17 17 17 18 18 18 19 19 19 20 20 21 22 23 24 24 25 26
4 4 5 5 6 6 7 7 8 8 9 10 11 12 12 13 13 14 14 15 15 16 17 17 17 17 16 16 15 15 15 16 17 18 19 20 21 20 20 21 22 23 24 23 23 23 23 23 22 22 23 24 25 25 25 24 24 24 23 22 22 21 20 20 19 19 18 17 17 17 17 17 17 18 18 18 19 19 20 21 22 23 24 25 26 26
5 5 5 6 6 7 7 7 8 9 9 10 11 12 13 13 13 14 14 14 15 16 16 17 17 17 17 16 16 16 16 16 17 18 19 20 21 21 21 21 22 23 24 24 24 24 25 24 24 24 25 25 26 26 25 25 25 24 24 23 22 22 21 20 20 19 18 18 17 17 17 17 17 17 18 18 19 19 20 21 22 23 24 26 26 27
5 5 6 6 7 7 7 8 8 9 9 10 11 12 12 13 13 13 14 14 14 15 16 16 17 17 17 17 17 16 16 16 16 18 19 19 20 21 21 22 22 23 25 25 25 25 25 25 25 25 26 26 27 27 26 26 25 25 25 24 23 22 22 21 20 19 19 18 17 17 17 17 17 17 17 18 19 19 20 21 23 24 25 26 27 28
6 6 6 7 7 7 8 8 8 9 9 10 11 11 12 12 13 13 13 14 14 15 15 16 16 17 17 18 18 17 16 15 16 18 19 19 20 21 21 22 22 23 25 27 27 26 26 25 25 26 27 27 28 27 27 27 27 27 26 25 24 23 22 22 21 20 19 18 17 17 17 17 17 17 17 18 19 20 21 22 23 25 26 27 28 29
6 7 7 7 8 8 8 8 9 9 10 10 11 11 12 12 12 13 13 14 14 15 15 16 16 17 17 18 19 19 16 15 16 17 18 19 20 21 21 22 22 23 24 27 29 30 29 27 26 27 28 29 29 28 28 28 28 28 28 27 26 24 23 22 21 20 19 18 17 17 17 17 17 17 18 18 19 20 21 22 24 25 27 28 29 29
7 7 8 8 8 8 9 9 9 10 10 11 11 12 12 12 13 13 14 14 14 15 15 16 16 17 17 18 19 19 18 15 15 17 18 18 19 21 21 21 22 22 23 24 26 29 31 31 29 28 29 30 30 30 29 29 30 30 29 28 27 25 24 23 22 21 20 18 17 17 17 17 17 17 18 18 19 20 21 22 24 25 27 28 29 30
8 8 8 8 9 9 9 10 10 10 11 11 11 12 12 13 13 14 14 14 15 15 15 16 16 17 17 18 18 19 18 15 15 16 17 18 19 20 21 21 21 21 22 22 22 23 26 31 32 32 31 31 31 31 30 30 30 30 30 29 28 26 25 24 23 22 21 19 18 17 17 17 17 17 18 19 19 20 21 22 23 25 26 28 29 30
9 9 9 9 9 10 10 10 11 11 11 11 12 12 13 13 13 14 14 15 15 15 16 16 17 17 18 18 18 18 17 15 15 16 17 18 19 20 20 21 21 21 22 22 22 22 24 28 32 33 33 33 32 32 31 31 31 31 30 30 29 27 26 25 24 23 22 21 20 19 18 18 18 18 18 19 20 20 21 22 22 24 25 27 29 30
10 10 10 10 10 10 11 11 11 11 12 12 12 12 13 13 13 14 14 15 15 15 15 16 16 17 18 18 19 18 17 15 15 16 17 17 18 19 20 20 20 21 22 22 23 23 24 27 29 32 33 34 33 32 31 31 31 31 30 30 29 28 26 25 25 24 23 22 21 21 20 20 20 20 20 20 21 21 22 22 22 23 23 25 27 29
10 11 11 11 11 11 11 12 12 12 12 12 13 13 13 13 14 14 14 15 15 15 15 16 16 17 17 18 18 18 17 16 15 15 16 16 17 18 19 20 20 21 21 22 23 24 25 27 28 29 31 33 33 32 31 31 31 31 31 30 28 27 26 26 25 25 24 23 23 22 22 22 22 22 22 22 22 22 22 22 22 22 23 23 25 26
11 11 12 12 12 12 12 12 12 12 13 13 13 13 13 14 14 14 14 15 15 15 15 15 16 16 17 17 18 17 17 16 15 15 15 15 16 18 19 19 20 20 21 22 23 24 25 27 28 29 29 31 32 33 32 32 32 32 31 30 29 27 26 25 25 25 25 25 25 24 24 24 24 24 23 23 23 22 22 22 22 22 22 23 23 24
11 12 12 13 13 13 13 13 13 13 13 13 13 14 14 14 14 15 15 15 15 15 15 15 16 16 16 17 17 16 16 16 15 14 14 15 16 17 18 19 20 20 20 20 22 23 25 27 28 29 29 29 30 32 33 33 33 33 32 31 30 28 27 26 25 25 25 25 26 26 25 26 26 25 25 24 24 23 22 22 22 22 23 23 23 24
12 12 13 13 13 13 13 13 13 13 13 13 14 14 14 15 15 15 15 15 15 15 16 16 16 16 16 16 16 16 15 15 14 14 14 14 15 16 17 19 19 19 19 19 20 22 23 25 27 29 29 30 30 30 32 33 34 34 33 32 30 29 28 27 25 25 25 26 26 26 26 26 27 27 26 26 25 24 24 23 23 23 23 24 24 24
12 13 13 13 13 13 13 13 13 13 14 14 14 14 14 15 15 15 15 15 15 16 16 17 17 16 16 16 15 15 15 14 14 13 13 13 14 15 16 18 18 18 18 19 20 21 22 23 25 27 29 30 31 31 32 32 33 33 33 32 31 30 28 27 26 26 26 26 27 28 27 27 27 28 28 27 27 27 27 27 26 26 26 27 27 27
13 13 13 13 14 14 14 14 14 14 14 14 14 14 15 15 15 15 15 16 16 16 17 17 17 17 17 16 15 15 14 14 13 13 12 13 13 14 15 16 17 18 18 19 19 20 21 22 24 25 27 29 30 32 32 32 32 32 32 32 32 31 30 28 27 27 26 27 27 28 29 28 29 29 29 29 28 28 29 29 28 28 29 31 32 33
13 13 13 14 14 14 14 14 14 14 14 14 14 14 15 15 15 16 16 16 16 16 17 17 17 17 17 16 15 14 14 13 12 12 12 12 12 13 14 15 16 17 18 19 19 20 21 22 23 24 25 27 29 30 31 31 31 30 29 30 30 31 30 29 28 27 27 27 27 27 28 29 29 30 30 30 29 28 28 29 29 30 31 32 33 34
13 13 13 14 14 14 14 14 14 14 14 14 15 15 15 16 16 16 16 16 16 17 17 17 18 18 17 16 15 14 13 12 12 12 11 12 12 12 13 14 15 16 17 19 19 20 20 21 23 24 25 25 27 29 31 31 30 28 28 28 29 31 31 30 28 28 28 28 27 27 28 29 30 31 31 30 30 29 28 29 30 31 32 33 33 34
13 13 14 14 14 14 14 14 14 15 15 15 15 15 16 16 16 17 17 17 17 17 17 18 18 18 18 17 16 14 13 13 12 11 11 11 12 12 13 13 14 15 17 18 20 20 21 21 22 23 24 24 26 28 30 30 29 28 27 27 28 29 31 31 30 29 28 28 28 27 28 29 30 31 31 31 30 30 29 30 30 31 32 33 34 34
13 13 14 14 14 14 14 14 15 15 15 15 15 16 16 16 17 17 17 17 18 18 18 18 18 18 18 18 17 16 14 13 13 12 12 12 12 12 13 13 14 15 16 18 19 21 22 22 22 22 22 23 25 26 28 28 28 27 27 26 26 27 28 30 31 31 30 29 28 27 28 29 30 31 31 31 31 31 31 31 31 32 32 33 34 35
14 14 14 14 14 14 14 14 15 15 15 15 16 16 16 16 17 17 17 17 18 18 18 18 18 18 18 18 17 16 16 15 14 13 13 13 13 13 14 14 15 15 16 17 18 20 21 22 23 23 23 23 24 25 26 26 26 26 26 26 26 27 28 29 30 30 30 29 28 28 28 29 30 32 33 33 33 33 33 33 33 34 34 34 35 35
14 14 14 14 14 14 15 15 15 15 16 16 16 16 16 16 16 17 17 17 17 18 18 18 18 19 18 18 18 17 17 16 16 15 15 15 15 15 15 16 16 16 17 17 18 19 20 21 22 23 24 24 24 24 24 24 25 26 26 27 27 28 29 29 29 28 28 28 28 29 29 29 31 32 33 34 34 35 34 34 35 35 35 35 35 35
15 15 15 15 15 15 15 15 15 16 16 16 16 16 16 16 16 17 17 17 17 17 17 18 18 18 18 18 18 18 18 18 17 17 17 17 17 17 17 18 18 18 19 19 19 19 20 20 21 22 22 23 24 24 23 23 23 24 26 27 28 29 30 30 29 28 27 27 28 29 29 30 31 32 33 34 35 35 35 35 35 35 35 35 35 36
16 15 15 15 15 15 15 16 16 16 17 17 17 17 16 16 16 17 17 17 17 17 17 18 18 18 18 18 18 18 19 19 19 19 19 19 19 19 20 20 20 21 21 21 21 21 21 21 20 20 21 21 22 23 24 23 24 24 26 27 28 29 30 30 29 28 27 27 28 28 29 30 31 32 34 35 36 36 36 36 35 35 35 35 35 36
16 16 16 16 16 16 16 16 17 17 17 17 17 17 17 17 17 17 17 17 17 17 18 18 18 19 19 19 19 19 19 20 20 20 20 20 21 21 22 22 22 23 23 23 23 23 23 23 22 21 20 20 20 21 23 24 24 25 26 27 27 29 30 30 29 28 27 28 28 28 29 29 30 31 33 34 35 36 36 36 36 35 35 35 35 36
16 16 16 16 16 16 16 17 17 17 17 17 17 17 17 17 17 17 17 17 17 17 18 18 19 19 20 20 20 20 21 21 21 21 22 22 22 23 23 24 24 24 25 25 25 25 25 25 24 22 20 19 19 20 21 23 25 26 26 27 27 28 29 29 28 28 28 28 29 29 30 30 31 31 32 33 34 35 36 36 36 36 36 36 36 36
16 16 16 16 16 16 17 17 17 17 17 17 17 17 17 17 17 17 17 17 18 18 18 19 19 20 21 21 21 22 22 22 23 23 23 23 23 24 24 25 25 25 25 26 26 27 27 26 26 24 22 19 18 18 20 22 24 26 27 27 27 27 28 28 28 27 28 29 29 30 31 32 32 31 31 32 33 35 36 37 36 36 37 37 37 37
Wind_Direction
233 236 238 236 235 238 245 255 262 267 272 278 281 285 291 296 300 304 307 310 312 312 309 307 306 308 311 314 317 319 320 321 322 323 325 327 328 328 329 329 328 327 327 326 325 324 323 322 321 321 320 321 321 321 321 321 321 320 320 319 318 317 316 315 315 314 314 313 313 313 313 313 313 314 314 314 315 316 317 317 318 318 318 318 319 319
230 231 230 232 233 235 241 250 255 256 258 266 275 282 293 302 313 320 317 316 313 311 309 309 311 314 318 322 325 327 327 328 330 332 333 333 334 333 333 332 331 330 329 328 327 325 325 324 323 323 322 323 322 322 322 322 322 322 321 320 319 318 317 316 315 315 314 314 314 314 314 313 313 314 314 314 315 315 316 317 317 317 318 318 319 319
224 223 222 227 231 234 239 245 249 249 248 252 263 278 296 312 327 345 353 342 321 308 310 318 325 329 331 333 333 334 336 338 340 340 340 340 338 338 337 335 334 333 331 330 328 328 327 326 325 325 325 324 324 324 323 323 323 323 322 321 320 319 318 317 316 316 316 315 315 314 314 313 313 313 313 314 315 316 316 317 317 318 319 319 320 320
221 217 214 221 228 232 236 240 243 243 240 240 242 258 290 299 310 82 120 122 132 135 63 3 355 352 347 344 343 344 346 348 347 346 345 344 343 341 340 338 336 335 333 332 331 330 329 328 328 327 327 326 326 326 326 326 326 325 324 323 322 320 319 319 318 317 316 315 315 314 313 313 313 314 314 315 316 318 319 319 320 321 321 321 321 321
215 209 207 213 218 223 231 235 235 230 221 202 168 142 147 164 147 133 138 140 138 121 78 43 19 8 360 354 351 351 353 353 352 351 349 347 346 344 342 340 338 337 336 334 333 332 331 331 330 330 330 329 329 329 329 329 328 328 326 325 323 322 321 320 318 317 317 316 315 314 314 315 315 316 318 319 320 321 322 322 322 321 321 321 320 321
207 202 202 205 207 208 212 213 209 196 174 157 148 145 142 132 121 117 125 127 115 87 57 37 24 13 4 358 356 355 355 356 355 354 352 350 348 345 344 342 340 339 338 337 336 335 334 334 333 333 333 333 332 332 332 331 330 329 328 326 324 322 321 320 319 318 318 317 316 316 317 318 319 320 321 321 322 322 322 321 320 319 319 318 318 319
202 202 202 201 200 198 187 175 166 157 148 144 145 146 141 130 116 107 95 80 63 48 36 28 21 14 7 1 357 355 354 354 354 354 353 351 349 347 345 344 343 342 341 340 339 338 338 337 337 337 336 336 335 334 333 332 331 330 328 325 324 322 321 321 320 319 319 319 319 319 320 320 321 322 322 322 321 320 319 318 317 316 315 315 315 316
190 192 193 190 190 187 177 167 158 154 148 141 134 129 123 117 102 79 58 45 37 29 25 21 16 10 6 2 358 354 351 349 350 351 351 350 349 348 347 346 345 344 343 343 342 342 341 341 341 340 340 339 337 336 334 333 331 329 327 325 324 323 323 322 322 321 320 320 320 321 321 321 321 321 320 319 318 317 315 314 313 313 313 313 313 313
172 170 174 176 173 170 166 165 163 159 153 146 138 125 106 88 60 35 24 23 18 13 11 9 6 3 1 360 358 355 350 347 345 346 347 348 347 346 346 346 346 346 347 347 346 345 345 345 344 343 342 340 338 337 335 333 331 329 327 326 325 325 325 324 323 322 322 321 321 321 321 321 320 319 318 317 315 314 313 312 312 311 312 312 312 312
167 163 163 170 173 171 162 156 158 159 155 151 147 139 119 94 62 30 10 4 358 355 351 352 353 355 354 354 355 356 354 350 345 343 343 344 344 345 345 346 348 349 350 349 349 349 349 348 347 346 344 342 340 338 336 334 332 330 329 328 328 328 327 326 324 323 322 321 320 320 320 319 318 317 316 315 313 313 312 312 312 312 312 312 312 311
161 164 165 167 172 176 173 157 146 142 143 132 126 140 172 150 27 9 2 1 357 352 347 345 345 346 347 348 348 351 354 353 349 344 341 340 340 341 343 345 348 350 351 351 351 351 351 351 349 347 346 344 342 340 338 336 335 334 332 332 331 329 327 325 323 322 321 320 319 318 318 317 316 315 315 314 313 312 312 312 312 312 312 312 312 312
155 159 164 163 163 162 161 147 124 92 68 43 11 326 327 335 342 350 353 356 357 355 352 348 344 343 343 343 344 345 347 349 350 346 341 336 335 335 338 342 346 349 351 351 351 352 353 352 351 349 348 346 345 343 342 340 339 337 335 334 331 329 326 324 322 321 320 319 318 318 317 316 316 315 314 314 313 313 313 312 312 312 312 312 312 312
155 157 160 162 158 152 141 119 100 81 41 313 309 328 350 354 355 355 354 354 354 355 355 352 347 343 341 340 341 343 345 348 350 349 344 337 333 333 335 339 344 347 349 350 351 352 353 353 352 351 349 348 347 345 345 343 342 339 336 334 331 328 326 323 322 320 320 319 318 318 317 317 316 315 315 314 314 313 313 313 313 313 313 313 312 312
155 157 159 159 158 155 154 143 16 331 325 327 332 339 347 352 355 355 354 353 354 355 356 354 350 345 341 340 340 342 344 347 349 351 349 342 337 335 336 339 343 346 348 349 351 353 353 353 353 352 351 349 348 347 346 344 342 339 337 334 331 328 326 324 322 321 320 319 319 318 318 317 316 316 315 314 314 314 313 313 313 313 313 312 312 311
158 160 160 163 167 181 212 276 313 326 335 342 348 350 351 350 350 348 348 349 351 352 353 352 350 347 345 343 342 343 344 345 347 350 352 348 342 338 338 339 342 346 348 350 353 355 355 355 354 353 352 351 350 349 347 345 342 339 336 333 330 328 326 324 322 321 321 320 320 319 319 318 317 317 316 315 315 314 314 313 313 313 312 312 311 311
163 165 168 178 195 226 274 306 324 334 338 344 347 347 345 343 343 344 345 347 348 348 348 347 347 350 352 348 344 343 343 344 346 349 352 352 346 340 339 339 341 345 349 352 354 356 356 355 355 354 353 352 351 350 347 344 341 339 336 333 331 329 327 325 323 323 322 321 321 320 320 319 319 318 317 316 315 315 314 314 313 313 312 312 311 310
172 175 183 202 228 258 293 315 324 332 336 340 341 340 338 338 340 342 344 345 346 348 349 348 348 350 352 353 348 344 343 343 344 347 349 351 348 343 340 340 342 345 350 352 354 356 357 356 355 355 354 353 352 350 348 345 342 340 337 335 333 331 329 327 326 325 324 323 322 322 321 321 320 319 318 317 316 316 315 314 313 313 312 311 311 310
188 196 214 239 259 278 298 310 320 326 331 332 333 334 335 336 338 340 341 343 345 348 350 351 351 351 350 353 350 345 344 342 342 344 346 349 348 345 341 341 342 345 348 351 354 356 357 356 356 356 356 355 354 352 350 347 345 343 341 339 337 335 333 331 329 327 326 325 325 324 323 322 321 320 319 318 317 316 316 315 314 313 313 312 311 311
210 229 251 269 282 296 302 308 314 318 322 323 326 327 327 329 333 336 339 342 344 347 350 352 353 352 351 352 350 346 343 341 340 340 342 346 349 347 343 341 341 343 346 350 352 355 356 356 356 356 357 357 356 355 353 351 349 348 346 344 342 339 336 334 332 330 329 327 327 326 324 323 322 321 320 319 318 317 316 316 315 314 313 312 312 311
231 251 269 286 296 300 304 307 312 316 318 321 323 322 321 326 330 335 338 341 344 347 349 351 352 352 352 352 350 346 342 340 338 337 339 343 347 348 343 340 339 340 344 347 351 354 355 356 356 357 358 359 359 359 357 356 354 352 351 348 345 342 339 336 334 332 331 329 328 327 326 324 323 322 321 320 319 318 317 316 315 314 314 313 312 312
247 260 276 291 297 299 301 306 311 315 318 320 319 319 321 326 332 336 340 341 344 346 348 350 350 351 351 351 350 346 341 338 336 335 336 340 345 347 343 339 337 338 341 345 349 353 355 356 357 358 360 1 2 2 1 360 358 356 354 351 347 344 341 338 336 334 332 331 329 328 327 325 324 323 322 321 320 319 318 317 316 315 314 314 313 313
258 268 282 293 298 300 303 307 312 316 320 317 316 318 323 329 334 338 340 341 342 344 346 347 348 349 350 351 349 345 340 337 335 334 334 336 341 345 342 338 336 337 340 343 347 350 353 355 357 359 1 3 3 3 3 2 1 359 356 353 349 346 342 340 337 335 333 332 330 329 327 326 324 323 322 322 321 320 319 318 317 316 315 315 314 314
272 282 289 294 299 303 306 308 312 317 320 316 315 318 326 331 335 338 339 341 341 342 343 344 346 347 347 347 346 343 338 334 332 331 331 332 337 342 342 338 336 336 339 342 344 346 350 354 357 359 1 3 4 4 4 4 2 0 357 354 351 347 344 341 338 336 334 332 330 328 327 326 325 324 323 322 321 321 320 319 318 318 317 317 316 315
280 288 294 298 302 305 307 307 310 314 317 319 321 326 332 335 337 338 340 341 342 342 342 342 342 341 341 341 342 341 336 331 329 329 329 330 334 339 341 339 336 336 338 340 342 343 346 351 355 358 360 1 3 4 4 4 2 1 358 355 352 348 345 342 339 337 334 332 330 328 327 326 325 324 323 323 323 322 321 321 320 320 320 319 318 317
279 286 291 296 300 303 306 308 311 315 319 323 326 330 334 337 338 339 339 340 339 339 338 336 334 334 335 336 339 341 335 330 328 328 328 329 332 336 339 338 336 335 336 338 339 340 343 347 352 355 358 360 1 2 2 2 2 1 359 356 353 349 346 343 340 337 334 332 329 328 326 325 324 324 324 324 324 324 324 324 323 323 322 321 321 320
276 280 286 291 296 299 303 307 312 318 322 325 327 328 331 332 334 336 336 335 333 331 330 328 328 329 331 333 336 338 335 330 327 327 328 329 331 333 337 337 336 333 333 335 337 338 340 345 349 353 355 357 358 359 360 360 0 0 359 357 354 350 347 344 341 337 334 331 329 327 325 325 324 325 325 325 326 326 327 327 327 326 326 324 323 323
276 282 287 292 297 301 305 310 315 318 320 321 322 323 326 327 329 331 329 327 326 325 325 325 325 327 328 330 333 335 335 330 327 326 327 329 330 331 333 335 334 332 331 332 334 336 339 343 346 349 352 353 355 356 356 357 358 359 359 357 355 352 348 345 341 337 334 331 328 326 325 324 324 325 326 327 328 329 330 330 330 329 328 327 327 326
283 289 294 298 301 304 308 312 315 316 316 316 315 317 321 322 322 321 321 322 321 320 320 321 322 324 326 327 330 332 334 332 328 326 327 328 327 327 329 332 332 332 331 331 331 334 337 341 344 346 348 349 351 352 353 354 356 357 358 357 355 352 349 345 341 338 334 331 329 326 325 325 325 326 327 328 330 332 333 333 333 332 331 331 331 330
286 292 295 298 301 304 307 310 312 312 312 311 312 314 316 317 316 315 316 318 317 316 317 319 320 322 323 324 326 329 333 333 329 326 326 326 324 323 326 329 330 331 332 331 330 331 335 339 341 342 343 345 347 348 350 352 353 355 356 356 355 352 349 345 342 339 335 332 329 327 326 326 326 327 328 329 331 333 335 335 335 334 333 333 333 332
285 289 292 294 298 302 305 307 309 309 309 309 310 311 313 313 313 313 314 315 314 314 315 316 318 320 321 322 324 326 331 332 328 324 323 322 320 320 323 326 329 331 332 332 331 330 332 336 339 339 339 341 343 345 348 350 351 353 353 354 353 352 349 346 342 339 337 333 331 329 328 327 327 327 328 330 331 333 335 336 337 336 335 334 332 331
280 283 287 292 297 301 303 305 306 306 306 306 307 308 308 309 309 310 310 311 312 312 314 315 317 318 319 321 321 322 326 329 324 320 320 319 318 318 321 323 326 329 331 332 331 328 327 330 334 336 336 338 340 343 346 348 349 350 351 351 351 350 348 346 343 341 338 336 333 331 329 328 327 328 328 329 331 333 335 336 337 337 336 333 331 330
275 279 283 289 294 297 300 301 302 303 303 304 304 305 305 306 307 307 308 308 310 311 313 314 315 317 317 318 317 318 322 326 322 317 317 317 316 317 319 321 323 326 328 328 327 323 320 322 327 332 334 336 338 340 343 345 346 347 348 348 348 348 347 345 344 342 340 338 336 334 332 330 329 329 329 330 331 332 334 336 337 338 336 333 331 330
272 276 280 285 288 291 294 296 298 299 300 301 302 302 303 304 305 305 306 307 308 310 311 312 313 314 315 315 315 316 320 322 320 316 315 315 314 314 316 318 320 323 325 325 324 320 316 317 321 327 330 333 335 337 339 341 343 344 345 345 345 346 346 345 344 344 343 341 340 338 335 333 332 331 330 330 330 331 332 333 335 337 336 334 332 331
271 275 278 282 284 287 290 292 294 296 298 298 299 300 301 302 303 303 304 305 306 307 308 310 310 310 311 312 313 315 318 320 318 314 312 312 311 311 313 315 317 319 321 322 321 319 317 317 319 322 325 328 331 334 336 337 339 340 342 343 343 344 345 346 345 345 345 344 343 341 340 338 336 335 333 332 331 330 330 331 332 334 335 335 334 332
273 275 278 280 283 285 288 290 292 294 296 297 298 298 299 300 300 301 302 303 304 305 306 307 307 308 309 309 311 313 317 319 316 312 310 308 308 308 310 312 314 316 318 318 319 318 317 317 318 320 321 324 327 330 332 334 335 337 339 341 342 343 345 346 346 346 346 345 345 344 344 342 340 338 336 333 332 330 329 329 329 331 333 335 336 335
272 274 277 279 282 284 287 289 291 293 295 296 297 297 298 298 299 299 300 301 302 303 304 304 305 305 306 308 310 313 316 316 314 310 307 305 305 305 306 309 312 314 314 315 315 316 315 316 317 318 319 319 322 326 329 331 333 334 336 338 340 342 344 346 347 347 346 346 346 346 345 344 342 340 337 334 332 330 328 327 328 329 331 334 336 338
272 274 276 279 281 283 285 288 290 292 294 295 295 296 297 298 298 299 300 301 302 302 302 302 302 303 304 306 308 311 313 313 312 308 305 302 302 302 303 305 309 311 311 311 312 313 313 314 316 317 317 316 318 321 325 328 331 332 334 336 338 340 343 346 348 348 347 346 346 345 345 344 342 339 337 335 333 331 329 328 328 330 331 333 335 338
273 274 276 278 280 282 284 287 288 290 292 293 294 295 296 297 298 299 300 301 301 301 300 300 300 301 303 305 307 310 311 312 310 308 304 301 300 300 300 303 306 307 307 307 308 309 310 311 312 313 315 316 317 319 322 325 328 330 333 334 335 338 341 344 347 349 348 347 345 344 344 342 341 339 337 336 336 335 334 333 333 334 335 335 336 337
273 274 276 278 280 281 283 285 286 288 290 292 293 294 295 296 297 298 298 299 299 299 299 299 300 301 303 305 308 310 311 311 310 308 306 302 300 299 299 301 302 304 305 304 304 305 306 307 308 310 312 314 317 319 322 323 325 328 330 332 334 336 338 342 346 348 348 346 344 342 341 340 340 338 337 338 339 339 339 338 339 340 341 340 339 339
274 275 276 277 279 280 282 283 285 287 289 291 292 294 295 295 296 296 296 297 298 298 299 300 301 303 304 306 308 310 310 311 310 309 307 304 301 300 299 299 301 302 303 302 302 303 304 305 307 310 312 312 314 317 320 322 324 327 329 329 330 333 336 340 344 346 347 345 342 340 338 338 338 337 337 338 339 341 341 341 342 343 345 344 342 340
275 275 276 277 278 280 282 283 285 286 288 290 292 293 293 294 294 294 295 296 297 298 299 300 301 302 303 305 307 308 309 310 310 309 308 305 303 301 301 301 301 301 302 302 303 304 306 307 309 312 314 314 314 315 317 319 323 325 327 328 328 330 334 337 341 343 343 342 341 339 338 337 337 336 336 337 339 342 344 343 343 344 345 345 342 339
275 275 275 276 278 280 282 283 285 286 288 289 291 291 292 292 293 293 294 296 297 298 299 299 300 300 301 303 305 307 309 310 311 310 309 308 306 304 303 303 302 302 302 303 305 307 309 309 310 311 313 314 314 313 314 318 322 325 327 328 329 331 333 335 338 340 339 338 338 339 338 337 336 335 335 336 338 342 346 346 345 344 343 342 341 340
275 275 276 277 278 280 282 284 285 286 288 289 290 291 291 292 293 294 295 296 298 298 300 300 301 301 302 304 306 309 310 312 313 313 312 311 310 308 307 306 305 304 304 306 307 308 311 311 311 311 313 313 312 311 313 317 321 325 327 330 330 329 326 329 334 337 336 336 336 337 338 337 335 334 334 335 338 342 345 346 346 345 344 342 341 339
275 276 277 278 280 281 283 284 284 285 287 288 289 289 290 291 292 294 295 297 298 299 300 301 302 303 303 304 307 310 312 313 315 316 316 315 315 313 311 310 309 308 308 309 309 310 312 312 312 313 313 312 311 311 313 318 322 325 327 330 330 326 321 325 329 333 333 334 335 337 338 337 335 334 334 335 338 341 343 344 344 344 344 344 341 339
275 277 278 279 281 282 283 284 285 285 286 286 287 287 287 289 291 292 294 296 297 298 300 301 302 302 303 305 307 310 312 314 315 317 318 318 317 316 315 314 313 312 311 311 311 311 312 312 313 314 313 312 311 312 315 319 322 325 327 329 328 325 323 325 328 329 330 333 335 337 338 337 335 334 334 335 337 338 340 341 342 342 342 342 340 337
276 277 278 280 281 283 284 285 285 285 285 286 286 286 286 287 288 290 292 293 295 297 298 300 301 302 304 306 308 309 311 312 314 316 318 318 318 317 317 316 316 315 314 313 312 311 311 312 313 314 314 314 314 315 318 321 323 325 326 327 326 325 324 325 326 328 330 332 334 336 337 337 336 335 334 334 335 336 337 338 339 338 338 338 336 335
277 279 281 282 283 284 285 286 286 286 286 286 285 285 285 286 287 288 290 291 293 295 296 297 299 300 302 305 307 309 310 311 313 315 316 317 318 318 318 317 317 317 316 314 313 312 312 312 314 315 316 316 317 318 321 323 324 324 325 325 324 323 321 323 326 329 331 333 334 336 337 338 337 335 333 333 332 332 333 334 335 335 335 334 333 332
279 280 282 283 285 286 286 286 286 286 286 286 285 285 285 286 286 287 288 290 291 293 294 296 297 299 301 303 306 308 309 310 312 313 315 316 316 317 317 318 318 317 316 314 314 313 313 314 316 318 319 319 319 320 323 325 325 324 323 322 321 320 320 322 326 329 331 332 334 336 337 338 336 334 332 331 329 328 329 329 330 331 332 332 331 330
277 279 281 283 285 286 287 286 286 286 286 286 286 286 286 286 286 287 288 289 290 292 294 295 297 298 300 302 304 306 307 309 310 311 313 314 315 316 317 317 317 316 316 315 315 315 315 317 318 321 323 323 322 321 323 324 324 323 321 320 320 320 321 323 326 330 332 333 334 336 338 338 337 335 332 328 326 324 325 324 325 327 329 330 330 329
275 277 279 281 283 285 285 286 286 286 286 286 286 286 287 287 287 287 288 289 290 292 293 295 297 298 300 302 303 305 306 307 309 310 312 314 315 316 316 317 317 317 317 317 317 318 318 319 321 322 325 326 325 323 321 320 320 320 319 319 321 322 322 323 327 331 333 333 334 336 338 337 337 335 332 327 324 322 322 321 322 323 326 328 329 330
274 276 277 280 282 284 284 285 285 286 286 286 287 287 287 288 288 288 289 290 291 292 293 295 296 298 299 301 302 304 305 307 308 310 312 313 314 315 316 317 318 319 320 320 320 320 321 322 322 322 323 326 326 323 319 317 317 318 319 321 323 324 324 324 327 331 333 333 334 335 336 335 334 332 330 326 322 321 320 319 319 320 324 327 328 329